Location: Franzen
(48.6167°N, 15.3833°E)
Time: 07:40:26
(UTC+00:00)

Cosmos 1709 Rocket - Pass Details

Date: 04 August 2021
Orbit: 947 x 1002 km, 82.9° (Epoch: 18 September)

Event Time Altitude Azimuth Distance (km) Brightness Sun altitude
Exits shadow 23:01:12 52° 198° (SSW) 1,226 4.1 -24.4°
Maximum altitude 23:02:54 83° 278° (W) 1,014 4.0 -24.4°
Drops below altitude 10° 23:09:20 10° 8° (N) 2,787 7.4 -24.4°
Sets 23:11:53 0° 9° (N) 3,741 8.4 -24.4°
